Wind_Speed
24 25 25 23 21 18 16 17 20 21 21 24 27 28 27 25 24 24 23 21 21 21 20 18 16 15 14 15 15 17 18 19 20 20 20 21 21 23 24 24 23 23
22 22 22 21 20 18 17 17 20 20 20 22 26 27 25 23 23 22 22 21 21 21 19 18 16 16 15 16 16 17 18 19 19 19 19 20 21 22 23 23 24 23
19 19 19 19 20 18 17 18 19 18 17 19 24 26 24 22 21 20 20 21 21 20 19 18 18 17 16 17 18 19 19 19 19 18 18 19 20 22 22 22 22 21
18 19 20 20 19 17 18 20 19 17 16 17 22 25 24 20 19 19 19 19 20 19 18 19 19 17 16 17 18 18 18 18 18 17 17 18 19 21 22 21 20 20
14 16 19 18 16 16 19 21 19 15 14 17 22 24 20 16 16 18 19 19 19 18 18 19 18 17 16 16 16 17 18 17 16 16 16 17 18 19 21 21 20 20
11 13 15 15 15 15 18 20 17 14 16 19 22 23 17 12 14 17 18 19 18 18 19 18 18 17 16 15 15 17 17 16 16 16 16 17 17 18 19 20 20 20
12 12 13 14 14 15 18 18 15 15 18 20 22 22 16 12 13 15 16 18 19 19 19 19 18 17 16 16 16 17 17 16 17 16 16 16 17 17 18 18 19 20
11 11 12 15 15 14 15 16 16 17 20 22 22 21 16 12 12 13 14 17 18 19 18 17 17 16 16 17 16 16 17 17 17 17 16 17 17 17 18 18 19 20
11 11 12 15 16 14 13 15 19 21 22 23 23 20 17 14 13 12 12 15 17 18 17 16 16 15 15 16 16 15 16 17 18 18 17 17 18 17 18 19 19 20
12 11 11 13 15 14 13 14 19 23 25 25 23 20 17 15 14 14 13 14 16 18 17 16 15 15 14 15 15 15 16 17 18 19 19 19 19 19 18 19 20 21
14 11 10 12 14 15 15 15 18 22 25 26 24 20 18 17 17 17 15 14 15 17 18 17 16 14 14 14 15 15 15 16 17 19 20 19 20 20 19 19 20 21
17 14 13 12 13 14 15 16 17 19 23 25 24 20 19 19 18 17 16 15 15 17 18 18 16 14 13 14 15 15 15 16 16 18 19 19 19 19 19 19 19 20
19 16 14 15 14 14 15 16 16 18 21 24 23 21 20 20 17 16 16 14 15 18 19 18 17 14 13 14 14 14 14 15 16 17 18 18 18 18 19 19 18 18
22 19 14 14 15 15 15 15 16 17 20 22 23 21 20 20 18 17 16 14 16 19 19 19 18 16 15 15 14 14 14 14 15 15 16 18 18 18 19 18 17 17
25 21 16 13 14 15 15 15 15 17 19 22 23 21 19 19 19 17 16 15 18 20 20 20 20 18 17 16 16 15 15 14 14 14 15 16 18 18 18 17 16 16
28 24 19 15 13 14 16 16 16 17 19 21 21 19 19 19 19 18 17 17 20 21 21 21 20 18 18 17 17 16 16 15 15 14 14 15 16 17 17 16 16 15
30 27 23 19 15 13 15 17 17 17 19 20 20 19 19 19 19 19 19 20 21 21 21 20 20 19 18 18 17 16 16 16 15 15 14 14 15 16 16 16 15 14
30 29 26 22 19 15 13 14 16 17 18 18 19 18 18 18 18 19 20 20 20 20 20 20 20 19 19 18 16 16 16 16 15 16 15 15 15 16 17 16 15 14
31 28 27 24 21 19 15 12 14 16 17 17 17 17 17 16 17 18 19 19 19 19 20 20 20 20 19 18 17 16 16 16 16 17 17 16 16 16 16 16 15 15
32 29 26 24 22 19 16 12 9 11 12 13 13 14 15 16 16 16 16 17 18 18 19 19 19 19 18 17 16 16 17 17 17 17 17 16 16 16 16 16 15 15
33 30 27 25 22 18 14 11 6 3 4 6 7 10 13 15 15 14 14 14 14 16 16 17 17 18 17 16 16 15 15 16 17 16 16 17 17 16 16 16 15 14
32 30 28 26 24 20 18 15 11 7 4 2 3 5 8 11 14 13 12 12 13 13 14 14 14 15 15 15 15 14 13 15 16 16 17 18 18 17 17 16 15 14
31 30 28 27 25 23 21 19 15 13 11 8 7 7 7 8 10 12 12 12 13 13 12 12 11 11 13 15 16 15 15 16 17 18 18 19 19 18 17 16 15 15
30 29 28 27 26 23 21 20 18 17 16 14 13 14 13 11 11 12 14 14 13 13 11 11 11 10 12 15 17 17 17 17 17 19 20 20 20 20 18 18 17 17
29 28 28 27 25 23 21 20 19 18 17 17 18 18 18 16 15 14 17 19 17 15 15 13 12 11 10 13 16 17 18 18 19 20 22 22 22 22 21 20 19 18
29 28 28 27 25 24 22 21 20 20 20 21 22 22 22 21 19 17 17 24 24 20 19 18 16 14 11 9 13 16 18 19 20 22 24 25 24 24 23 22 21 21
Wind_Direction
255 242 235 234 232 223 218 218 216 217 225 233 238 241 239 236 233 227 224 226 229 232 234 233 233 235 235 232 230 230 232 233 233 234 231 229 228 228 226 225 225 226
250 243 234 231 230 221 215 223 226 223 226 232 237 240 237 235 235 231 227 228 231 234 236 238 237 236 237 235 231 229 230 233 234 234 233 231 229 229 230 229 226 225
257 255 247 239 235 227 221 227 231 230 232 237 240 238 234 231 233 234 232 231 234 238 241 245 245 241 242 240 236 233 232 233 235 234 234 232 230 230 232 235 229 225
266 260 252 246 242 237 233 234 232 228 234 244 244 239 232 228 229 231 233 233 236 241 246 251 251 247 244 241 238 235 233 235 236 235 232 230 231 231 232 234 230 225
275 259 250 248 247 243 239 237 233 231 240 248 246 240 232 227 229 230 232 234 238 244 248 251 252 249 242 238 236 235 233 233 233 230 228 227 229 230 231 232 230 226
285 265 252 248 246 244 241 238 236 237 243 246 244 238 229 223 230 233 235 238 241 245 247 249 252 249 243 238 236 235 232 229 228 225 225 226 226 227 228 229 229 227
292 273 261 254 245 240 240 240 242 243 242 241 239 234 226 219 229 236 241 244 246 247 249 251 251 247 243 240 237 234 230 226 225 224 224 224 224 226 227 226 226 226
293 278 274 268 253 239 238 239 241 243 240 235 231 229 222 216 224 236 246 251 252 251 251 250 247 244 242 239 236 234 229 223 221 223 224 224 223 224 224 225 226 227
294 279 274 266 252 240 239 241 240 240 237 231 227 225 220 214 217 227 241 252 256 254 251 247 244 242 239 235 233 231 225 220 220 222 224 222 218 220 223 224 224 226
308 287 268 254 248 242 239 240 241 239 236 232 230 228 223 217 217 220 228 243 251 250 247 245 243 240 235 231 230 229 225 222 222 221 222 220 216 218 222 223 222 223
329 306 277 250 244 245 240 234 237 240 239 235 233 231 225 220 220 220 218 229 242 244 243 244 243 239 235 231 229 229 227 227 227 223 222 222 220 220 221 222 223 223
345 328 303 278 260 255 249 239 236 241 242 239 234 231 227 224 223 219 214 220 235 241 241 242 241 240 240 236 232 230 229 230 231 228 225 225 225 224 223 224 226 225
350 341 316 294 282 270 259 251 244 243 245 243 235 229 229 228 225 222 216 220 234 240 242 243 241 241 242 239 234 232 231 232 231 229 228 228 228 227 226 227 228 228
349 344 329 303 288 278 268 261 254 247 246 243 235 228 229 231 229 222 216 219 234 241 244 246 243 242 242 239 237 234 233 234 233 233 232 230 230 229 228 229 230 230
352 346 336 314 290 279 274 267 258 249 242 238 233 229 230 232 229 221 215 220 232 238 243 247 246 244 242 240 240 240 238 238 238 238 238 235 233 232 230 230 231 229
360 354 345 330 306 286 275 267 259 251 243 237 234 232 233 233 228 222 218 223 230 234 239 244 245 244 243 243 244 245 245 244 243 241 238 237 235 231 228 227 226 226
6 3 356 343 328 304 281 268 260 253 246 241 237 233 231 229 226 223 220 222 226 229 234 239 243 244 244 245 246 246 246 245 244 240 234 231 229 226 222 220 219 220
8 8 4 353 340 327 305 280 266 257 249 241 234 228 224 224 225 225 221 219 221 224 229 234 239 241 243 245 246 245 245 243 240 237 232 226 223 222 219 216 212 211
10 10 9 2 348 335 323 303 277 262 252 242 233 224 219 220 223 224 220 216 217 221 226 229 233 236 238 241 244 244 242 239 234 231 228 223 219 216 213 209 205 204
14 12 10 9 1 348 340 332 305 271 255 246 235 223 214 212 214 215 214 212 214 218 220 221 225 229 231 233 237 239 237 230 226 225 220 215 212 208 206 204 202 203
17 15 12 13 15 11 10 12 2 313 261 245 230 215 206 202 201 203 205 204 203 205 207 208 213 219 221 220 219 221 223 218 214 212 206 201 199 199 199 199 197 197
19 19 17 18 22 27 32 39 43 41 45 93 160 177 185 186 187 188 189 185 181 183 186 190 199 207 208 205 202 200 203 202 197 192 188 185 184 186 188 188 187 188
22 23 22 23 26 32 38 43 47 47 51 69 93 102 114 135 154 164 166 162 159 161 165 168 174 188 194 192 190 188 187 185 180 174 172 172 171 173 176 176 176 180
25 27 27 28 29 33 40 46 52 56 59 66 73 75 77 84 101 128 141 141 137 134 137 142 143 152 173 180 180 183 183 178 172 165 160 159 159 160 164 166 167 173
30 30 32 33 33 34 40 49 59 66 70 73 73 68 65 65 68 89 113 120 116 110 108 112 116 122 148 170 173 178 180 174 168 160 151 148 147 147 147 150 154 158
35 35 35 37 39 40 43 51 61 71 77 78 77 73 69 65 56 52 79 100 103 99 93 92 95 101 114 145 162 169 174 170 164 156 147 143 141 139 137 137 139 143
Height
787 787 788 791 793 794 796 798 799 799 799 801 804 805 805 806 808 809 810 811 812 813 814 815 815 816 818 819 820 821 823 824 825 826 827 828 829 830 830 832 833 835
790 789 789 790 792 792 792 793 795 796 796 798 801 804 804 805 806 808 810 811 811 812 813 814 814 815 817 818 819 820 821 822 823 824 825 826 827 828 829 830 831 833
791 790 790 789 789 788 789 790 791 792 792 795 799 802 803 803 805 807 809 810 811 811 812 812 813 814 815 816 817 819 820 821 822 823 824 824 825 826 828 829 830 832
789 789 788 788 788 788 789 790 790 789 790 793 796 800 801 801 803 806 807 809 809 810 811 811 811 812 813 815 816 817 818 819 820 821 822 823 824 825 827 828 829 831
787 787 787 788 788 789 790 789 789 788 788 791 795 798 799 798 800 803 805 807 808 809 809 809 809 810 811 813 814 816 817 817 818 819 820 821 822 824 825 827 828 829
786 786 786 786 787 788 790 789 788 786 787 790 793 796 796 795 797 801 803 805 806 807 807 807 808 809 810 811 813 814 815 816 816 817 818 820 821 822 824 825 827 828
784 784 784 784 784 786 788 787 786 786 787 790 792 794 793 792 795 798 801 803 804 805 805 806 807 808 809 810 811 813 814 814 815 816 817 818 819 821 822 824 825 826
782 782 782 782 783 783 785 785 785 786 787 789 790 791 790 789 792 796 798 801 802 803 803 804 805 806 808 809 810 811 812 813 813 814 815 816 818 819 821 822 823 825
780 780 780 780 781 781 781 783 785 785 786 787 788 788 787 787 789 793 796 798 800 801 802 803 804 805 806 808 809 810 811 811 812 813 814 815 816 818 819 821 822 823
778 779 779 779 780 779 779 782 785 786 786 786 786 786 786 786 788 790 793 795 798 800 802 802 803 804 805 806 807 808 809 810 811 812 813 814 815 817 818 819 821 822
777 777 777 777 778 778 777 779 783 784 785 784 784 784 784 784 785 788 790 793 796 799 800 801 802 803 804 805 806 807 808 809 809 810 811 813 814 816 817 818 819 820
777 776 775 775 775 776 777 778 780 781 783 783 782 782 782 783 783 785 787 790 794 796 799 800 801 802 803 804 805 805 806 807 808 809 810 812 813 814 816 817 818 819
778 776 775 774 774 774 775 777 778 779 780 781 782 781 781 781 781 783 785 788 792 795 797 798 799 801 802 803 804 804 805 806 807 808 809 811 812 813 815 816 817 818
778 777 775 774 774 773 774 775 776 778 779 780 781 780 780 780 780 781 784 787 790 793 795 797 798 799 801 802 803 804 804 805 806 807 808 810 811 813 814 815 816 817
780 777 775 774 774 773 774 774 775 777 778 780 780 780 780 780 779 780 782 785 788 791 793 795 796 798 799 801 802 803 804 804 805 806 808 809 810 811 813 814 815 816
781 779 777 775 774 774 775 774 775 776 777 779 779 779 779 779 779 780 782 784 787 790 792 793 795 796 798 800 802 803 803 804 805 806 807 808 809 811 812 813 814 815
783 780 778 777 776 776 776 775 775 776 777 778 778 778 778 779 779 780 781 783 786 788 790 792 793 795 797 799 801 802 803 803 804 805 806 808 809 810 811 812 813 814
786 782 780 779 777 776 776 776 776 776 777 777 777 777 777 778 780 781 781 782 785 787 789 790 792 793 795 798 799 801 802 803 803 804 805 807 808 810 811 811 812 813
789 785 782 780 778 777 776 775 776 776 777 777 777 777 776 777 779 781 782 782 783 785 787 788 790 792 794 796 798 799 800 801 802 803 804 806 807 809 810 811 812 812
792 789 786 783 780 778 777 776 776 776 777 777 777 776 776 777 778 780 782 782 782 784 786 787 788 790 792 795 797 798 799 800 801 802 803 805 806 808 809 810 811 812
794 792 789 786 783 781 779 777 777 777 777 777 778 778 777 777 777 779 781 782 782 783 785 786 787 789 791 793 795 796 798 798 799 801 802 803 805 807 808 809 811 812
797 794 792 790 787 784 782 780 779 779 778 779 779 779 780 779 778 779 781 782 782 783 785 786 787 789 791 792 794 795 796 798 798 800 801 802 804 806 807 809 810 811
800 797 795 793 791 788 786 784 783 782 781 781 782 782 783 782 781 780 780 782 783 783 785 786 786 788 790 792 793 795 796 797 798 799 800 802 803 805 806 808 809 810
804 801 799 797 795 794 792 790 788 786 786 785 785 785 786 786 786 783 781 782 783 784 785 786 787 788 790 791 793 794 795 797 798 798 800 801 803 804 806 807 809 810
807 805 802 800 799 799 797 795 793 791 790 789 789 789 789 790 791 789 784 782 783 785 786 787 788 789 790 792 793 794 795 796 797 798 800 802 803 804 806 807 809 810
810 808 806 805 803 803 802 801 799 796 794 793 792 793 793 793 795 796 791 784 782 786 788 789 790 791 791 792 793 794 795 796 797 799 800 802 804 805 806 808 809 811